Regional Weather Roundup
Issued by NWS Green Bay, WI

Home | Current Version | Previous Version | Graphics & Text | Print | Product List | Glossary Off
Versions: 1 2 3 4 5 6 7 8 9 10 11 12 13 14 15 16 17 18 19 20 21 22 23 24 25 26 27 28 29 30 31 32 33 34 35 36 37 38 39 40 41 42 43 44 45 46 47 48 49 50

000
ASUS43 KGRB 251600
RWRGRB

NORTH-CENTRAL AND NORTHEAST WISCONSIN REGIONAL WEATHER ROUNDUP
NATIONAL WEATHER SERVICE GREEN BAY WI
1000 AM CST SAT FEB 25 2017

WIZ005-009-010>012-018-019-251700-
NORTH CENTRAL WISCONSIN

CITY           SKY/WX    TMP DP  RH WIND       PRES   REMARKS
IRONWOOD       LGT SNOW  16  12  84 NW15G21   29.73R FOG     WCI   1
MANITOWISH WTR NOT AVBL
ARBOR VITAE    NOT AVBL
EAGLE RIVER    NOT AVBL
LAND O LAKES   NOT AVBL
RHINELANDER    LGT SNOW  15   8  73 NW13G23   29.67R WCI   1
PHILLIPS       LGT SNOW  12   6  77 W10G16    29.74R WCI  -1
ANTIGO         NOT AVBL
TOMAHAWK       NOT AVBL
MERRILL        NOT AVBL
$$

WIZ013-073-251700-
NORTHEAST WISCONSIN

CITY           SKY/WX    TMP DP  RH WIND       PRES   REMARKS
IRON MOUNTAIN  LGT SNOW  19  10  68 NW24G35   29.59R WCI   2
MARINETTE      LGT SNOW  22  16  78 NW9       29.66R
$$

WIZ017-030-035>037-045-251700-
CENTRAL WISCONSIN

CITY           SKY/WX    TMP DP  RH WIND       PRES   REMARKS
MEDFORD        NOT AVBL
WAUSAU         CLOUDY    15   8  73 NW17G24   29.73R WCI  -1
MOSINEE        LGT SNOW  16   9  73 W17G24    29.75R WCI   0
MARSHFIELD     FLURRIES  13   5  70 NW17      29.77R WCI  -4
WISC RAPIDS    CLOUDY    16   7  67 NW12      29.80S WCI   3
STEVENS POINT  NOT AVBL
WAUPACA        NOT AVBL
SHAWANO        CLOUDY    22  13  67 CALM      29.71R
CLINTONVILLE   NOT AVBL
WAUTOMA        CLOUDY    17   9  70 W21G28    29.80R WCI   0
$$

WIZ038-039-048-051-251700-
FOX VALLEY

CITY           SKY/WX    TMP DP  RH WIND       PRES   REMARKS
NWS GREEN BAY  LGT SNOW  20  15  81 W20       29.71R WCI   4
APPLETON       PTSUNNY   19   9  63 W14       29.71R WCI   6
OSHKOSH        LGT SNOW  17  10  74 W15G25    29.74R WCI   2
FOND DU LAC    MIX PCPN  18   8  65 W16G26    29.76R WCI   3
$$

WIZ022-050-052-251700-
EAST CENTRAL WISCONSIN

CITY           SKY/WX    TMP DP  RH WIND       PRES   REMARKS
EPHRAIM        NOT AVBL
WASHINGTON ISL NOT AVBL
STURGEON BAY   MIX PCPN  22  17  81 W15G22    29.66R WCI   9
MANITOWOC      NOT AVBL
SHEBOYGAN      MIX PCPN  19  11  70 W15G26    29.73R WCI   5
$$

LMZ563-521-522-541>543-251700-
LAKESHORE

STATION/POSITION TIME  TEMP    WIND        PRES    VSBY  WAVE
                       AIR SEA DIR/SP/G                  HT/PER
                 (UTC) (F)     (DEG/KT/KT) (MB)    (MI)  (FT/S)
SHEBOYGAN LKSHOR 1500   20     290/  7/ 10 1006.8R
KEWAUNEE LKSHORE 1530   20     290/ 13/ 19 1004.2R
NORTHPORT PIER   1540   20     300/  2/  3 1003.0R
CHAMBERS ISLAND  1540   21     260/  1/  2 1003.4R
MENOMINEE LKSHOR 1530   20     260/ 11/ 16 1003.4R
$$




USA.gov is the U.S. government's official web portal to all federal, state and local government web resources and services.